STARLINK-5081

decayed
NORAD ID: 55759 Int'l Des: 2023-028 Owner: SPXS Country: US Constellation: starlink
LEOCIRCULAR

关于 STARLINK-5081

正在加载描述...

高度历史

Altitude vs Time

uPlot chart will show altitude changes over time

两行轨道根数

1 55759U 23028U 25073.89378831 .04457374 42992-5 98664-3 0 9991
2 55759 69.9866 37.1601 0007969 215.6316 203.0991 16.30060619112965
Epoch: Mar 14, 2025 • Age: 4494 hours

当前状态

Position data unavailable
发射日期 Mar 3, 2023
运行时间 2.5 years
衰减日期 Mar 15, 2025
类型 internet

技术详情

分类 Payload
质量 305.00 kg
干质量 290.00 kg
总质量 305.00 kg
长度 0.20 m
直径 2.80 m
跨度 9.00 m
形状 Box + pan
制造商 SPXS
平台类型 Starlink
阶段状态 Reentered
所有者/国家 SPXS/US

大型星座

Loading constellations...